This is the latest recevied weather packets stored in our database for station/object KC8ZBC. If no packets are shown the sender has not sent any weather packets the latest 10 day(s).
| Time | Temp. | Humidity | Pressure | Rain* | Wind** | Luminosity | Snow |
|---|---|---|---|---|---|---|---|
| 1777560037 | 8.33° C | 64% | 989.3 hPa | 0 mm | - | 603 W/m² | - |
| 1777559732 | 8.89° C | 68% | 989.5 hPa | 0 mm | - | 618 W/m² | - |
| 1777559430 | 8.33° C | 65% | 989.1 hPa | 0 mm | - | 624 W/m² | - |
| 1777559127 | 8.33° C | 64% | 989.2 hPa | 0 mm | - | 526 W/m² | - |
| 1777558827 | 8.33° C | 69% | 989.1 hPa | 0 mm | - | 593 W/m² | - |
| 1777558522 | 7.78° C | 69% | 989.1 hPa | 0 mm | - | 575 W/m² | - |
| 1777558219 | 7.78° C | 68% | 989 hPa | 0 mm | - | 570 W/m² | - |
| 1777557915 | 8.33° C | 72% | 988.9 hPa | 0 mm | - | 517 W/m² | - |
| 1777557612 | 7.78° C | 72% | 988.9 hPa | 0 mm | - | 492 W/m² | - |
| 1777557308 | 6.67° C | 75% | 989.1 hPa | 0 mm | - | 532 W/m² | - |
| 1777557004 | 7.22° C | 73% | 989.1 hPa | 0 mm | - | 450 W/m² | - |
| 1777556700 | 7.22° C | 74% | 989 hPa | 0 mm | - | 401 W/m² | - |
| 1777556396 | 6.67° C | 74% | 988.9 hPa | 0 mm | - | 418 W/m² | - |
| 1777556092 | 6.67° C | 76% | 989 hPa | 0 mm | - | 414 W/m² | - |
| 1777555791 | 6.67° C | 78% | 988.9 hPa | 0 mm | - | 247 W/m² | - |
| 1777555488 | 6.11° C | 79% | 988.8 hPa | 0 mm | - | 219 W/m² | - |
| 1777555184 | 6.11° C | 77% | 988.8 hPa | 0 mm | - | 232 W/m² | - |
| 1777554882 | 5.56° C | 77% | 988.9 hPa | 0 mm | - | 161 W/m² | - |
| 1777554578 | 5.56° C | 79% | 988.8 hPa | 0 mm | - | 152 W/m² | - |
| 1777554275 | 5.56° C | 79% | 988.8 hPa | 0 mm | - | 180 W/m² | - |
| 1777553972 | 5° C | 81% | 989.1 hPa | 0 mm | - | 78 W/m² | - |
| 1777553668 | 5° C | 83% | 988.9 hPa | 0 mm | - | 71 W/m² | - |
| 1777553365 | 5.56° C | 83% | 989 hPa | 0 mm | - | 171 W/m² | - |
| 1777553061 | 5.56° C | 85% | 988.8 hPa | 0 mm | - | 175 W/m² | - |
| 1777552756 | 5° C | 85% | 988.9 hPa | 0 mm | - | 154 W/m² | - |
* Rain latest hour (hover to see other rain measurements)
** Current wind speed in m/s (hover to see current wind gust speed)